{"data":{"norad_id":64078,"epoch":"2026-05-25T00:17:34.620000Z","epoch_age_seconds":67799,"freshness":"FRESH","line1":"1 64078U 25107Q   26145.01220625  .00011213  00000+0  41605-3 0  9992","line2":"2 64078  42.9956 130.4607 0000985 171.6923 188.3945 15.27605935 57793","mean_motion":15.27605935,"eccentricity":9.85e-5,"inclination_deg":42.9956,"raan_deg":130.4607,"arg_perigee_deg":171.6923,"mean_anomaly_deg":188.3945,"bstar":0.00041605,"rev_number":5779,"period_min":94.265148295591,"perigee_km":482.29561923712,"apogee_km":483.64725759948,"semimajor_km":6861.1084384183,"source":"CELESTRAK","updated_at":"2026-05-25T13:38:20.260789Z"}}